Wind_Speed
11 10 9 9 11 11 11 11 11 10 10 9 9 9 9 8 7 6 6 6 5 5 5 5 5 5 4 4 5 6 6 6 5 5 4 4 4 5 6 6 6 6 7
11 11 11 11 12 12 12 12 12 11 10 9 9 9 9 8 8 7 7 6 6 6 6 5 5 5 4 4 5 6 6 5 5 4 4 4 4 4 5 5 5 6 7
13 12 12 12 13 13 12 12 12 12 11 10 9 9 9 9 8 7 7 6 6 6 6 5 4 4 4 5 5 6 6 5 5 4 4 4 4 4 4 5 5 6 6
13 13 13 13 13 14 13 12 12 12 11 11 10 9 9 9 9 8 7 7 6 6 6 5 5 4 4 5 5 5 5 5 5 4 4 4 4 4 4 4 5 5 6
13 13 13 13 13 14 14 13 13 13 12 11 11 10 9 9 8 7 6 6 6 6 6 5 5 4 4 5 5 5 5 5 4 4 4 4 4 5 5 5 5 6 6
13 13 13 13 13 14 14 14 14 14 13 12 12 11 10 9 8 7 7 6 6 5 5 5 5 5 5 5 5 5 5 5 4 4 5 5 5 5 5 6 6 6 7
14 14 14 14 14 14 14 15 15 14 14 13 12 12 10 9 9 8 7 6 5 5 5 5 5 5 6 6 6 5 5 5 5 5 5 6 6 6 6 7 7 7 8
13 13 14 14 14 15 15 15 15 14 14 13 13 12 11 10 9 9 8 7 6 6 6 6 6 6 6 6 5 5 5 5 5 5 5 6 7 7 7 7 7 7 7
13 13 14 14 14 15 16 16 14 14 14 14 13 13 12 10 9 9 9 8 7 7 7 7 7 6 6 6 5 6 6 5 5 5 5 6 7 7 7 7 7 7 7
13 13 14 15 14 14 15 16 15 14 13 13 13 13 12 11 10 9 9 8 8 7 7 6 7 6 6 6 6 6 6 6 6 6 6 7 7 7 7 7 8 8 8
13 13 14 15 15 14 15 15 15 15 13 13 13 13 12 11 10 10 8 9 9 8 7 7 7 7 7 7 7 7 7 7 7 7 8 8 8 8 8 8 9 9 9
12 12 14 15 15 15 15 15 14 14 13 13 13 13 12 11 11 10 10 9 9 9 8 8 8 8 8 8 8 7 7 7 8 8 9 9 9 9 10 10 10 10 11
12 13 13 15 15 16 15 16 15 14 13 13 13 13 12 11 11 11 11 11 10 11 10 10 10 10 9 9 9 9 8 9 9 10 10 10 11 11 12 12 12 12 12
11 13 13 14 15 16 16 16 16 15 15 14 14 14 13 12 12 12 12 12 12 11 11 10 11 11 11 11 10 10 10 10 11 11 12 12 12 12 12 13 13 13 13
10 12 13 13 13 14 15 15 16 16 15 15 15 15 15 14 14 13 12 12 12 12 12 11 11 12 13 12 12 12 12 12 13 13 13 13 13 13 13 13 14 15 15
10 11 11 11 12 12 14 15 15 16 16 16 16 16 16 15 15 14 13 13 12 12 12 12 13 14 14 14 14 14 15 15 15 15 15 15 15 15 15 15 16 16 17
11 11 12 12 12 12 13 14 14 16 16 16 16 16 16 16 15 16 15 14 13 13 14 13 14 15 15 15 15 16 16 16 17 17 16 17 17 18 18 18 18 18 18
12 12 13 13 13 13 13 14 14 15 16 17 17 17 17 16 16 16 15 14 14 14 15 15 15 15 16 16 17 17 17 18 18 18 18 18 19 19 19 20 20 21 21
12 13 13 13 14 14 14 15 15 15 16 16 17 17 17 16 16 16 16 16 16 16 16 16 16 16 17 17 18 18 18 19 19 20 20 20 20 20 21 21 22 22 23
13 13 13 14 14 14 15 15 15 15 16 16 16 17 18 18 18 18 17 17 17 17 16 17 17 17 17 18 19 19 20 20 21 21 22 22 22 22 22 22 23 24 25
12 13 13 14 14 15 15 15 16 16 16 17 17 18 19 19 19 18 18 17 17 18 17 18 17 18 18 19 20 20 20 21 22 22 23 22 23 23 24 24 25 26 27
13 13 14 14 15 16 16 16 16 17 17 17 18 18 19 19 19 19 18 18 18 18 18 18 18 18 19 20 20 20 21 22 23 23 23 23 24 25 25 26 27 28 29
14 14 14 15 15 15 15 16 17 17 18 18 18 18 19 19 19 19 18 18 19 19 19 19 19 19 20 20 20 21 22 23 23 23 23 24 25 25 26 28 29 30 30
15 15 15 16 16 16 16 16 17 18 19 19 19 20 20 19 19 19 20 19 19 19 19 20 20 20 20 21 21 22 23 24 25 25 25 26 27 28 29 30 31 32 32
16 17 16 16 17 17 16 17 17 18 19 20 20 21 21 21 21 20 20 21 21 20 20 21 21 22 23 23 24 24 24 26 26 27 28 28 29 30 31 32 33 33 33
17 17 17 17 17 17 17 18 18 19 19 19 20 21 22 22 23 22 22 22 22 22 23 22 22 23 24 25 25 26 26 27 27 28 28 29 30 31 32 32 32 32 33
Wind_Direction
228 229 226 222 214 214 215 216 215 214 215 217 223 226 227 230 238 247 259 270 275 278 286 296 299 301 308 318 324 328 326 323 310 294 282 276 267 257 254 253 253 252 255
223 225 222 216 214 214 214 214 213 211 216 222 223 227 228 233 240 248 257 267 270 275 282 287 292 296 304 315 323 327 326 323 312 297 285 273 269 263 262 261 260 259 260
220 220 222 217 214 214 213 213 212 212 216 219 221 226 230 236 239 245 255 265 270 276 283 281 282 291 297 304 315 323 321 319 312 299 288 276 269 272 269 271 268 266 267
221 222 221 219 217 213 211 214 216 214 214 217 222 227 232 236 237 245 255 263 265 271 274 273 273 282 292 297 306 314 316 313 311 302 288 278 269 272 274 270 267 268 271
222 221 219 218 217 214 212 214 218 217 217 222 226 230 234 239 235 243 257 263 264 268 268 269 270 276 288 296 299 305 310 307 304 301 289 280 276 279 279 273 272 276 276
223 225 224 221 218 216 214 217 218 220 224 227 230 233 234 236 236 243 254 259 262 263 266 270 270 277 285 292 297 298 300 298 295 292 286 285 286 284 283 277 278 281 282
224 225 226 224 222 218 217 219 218 222 226 230 232 233 235 237 237 238 246 251 252 254 260 267 272 279 285 289 293 296 295 293 290 284 288 290 291 290 286 282 284 284 284
222 224 226 223 224 222 221 221 220 221 224 226 228 231 236 238 238 239 241 247 252 256 260 263 269 278 283 289 291 295 295 294 291 292 293 294 294 293 289 288 288 286 284
223 224 223 225 223 223 221 220 220 223 225 225 226 230 236 236 235 236 237 243 251 256 260 261 264 271 277 286 291 293 295 296 296 299 301 304 301 297 291 292 291 290 287
224 224 222 224 222 222 221 221 223 224 225 223 224 227 230 232 234 237 235 241 249 253 254 260 264 267 273 281 288 291 289 291 291 293 296 298 300 299 298 295 292 291 289
223 223 222 223 220 219 220 223 224 224 225 224 224 225 227 233 237 240 244 245 248 251 252 255 264 264 271 278 284 288 287 288 290 292 292 293 295 295 294 293 293 292 292
224 222 220 222 220 219 221 221 220 220 222 223 223 226 228 232 235 240 246 250 248 249 252 254 258 266 271 276 284 290 289 289 288 291 291 291 292 292 292 291 289 290 292
226 223 220 219 219 219 218 217 217 219 222 223 224 226 229 230 235 239 244 247 249 251 253 257 258 263 267 274 282 283 282 287 288 290 291 291 291 290 290 289 288 289 292
226 224 222 219 220 220 218 218 219 220 223 227 229 229 231 233 237 240 245 248 251 253 255 258 260 263 266 271 278 278 283 284 285 288 289 290 291 293 291 289 288 288 291
219 220 220 217 218 221 220 221 222 224 227 231 233 232 233 234 238 244 248 250 253 257 257 258 263 266 267 268 272 276 282 284 284 284 286 289 290 291 292 291 290 289 291
220 221 221 219 221 222 222 222 225 229 230 233 234 233 234 235 239 243 249 251 251 256 259 261 266 269 269 270 272 277 279 282 284 284 284 286 289 289 288 288 289 290 291
225 225 224 224 225 224 224 225 227 230 231 233 233 233 234 238 243 247 248 249 251 255 257 261 266 267 267 269 274 276 277 280 283 284 284 284 285 285 285 286 287 290 290
230 228 228 227 226 226 227 229 233 236 235 236 235 235 236 239 244 246 247 249 253 257 263 262 265 267 268 269 271 275 278 280 282 282 283 284 284 285 285 287 288 289 289
233 234 232 229 230 231 231 232 236 237 239 239 236 235 238 241 244 245 247 251 255 259 262 263 265 267 269 270 271 274 277 280 282 282 283 282 283 285 285 286 288 289 288
234 235 235 234 234 234 233 234 237 239 240 241 241 239 241 244 244 246 248 254 258 261 262 264 266 268 272 273 272 275 276 278 282 283 282 282 283 283 284 286 287 288 288
236 237 238 239 238 239 238 238 240 239 240 242 243 243 243 244 246 247 249 255 260 260 263 268 270 273 274 277 277 275 278 280 281 283 284 284 284 284 285 287 288 289 289
244 244 242 241 240 241 241 240 241 240 241 243 243 244 244 245 248 249 251 255 259 262 266 270 272 275 278 279 281 279 280 283 283 284 284 285 285 285 286 288 289 290 290
245 244 243 242 242 243 242 241 240 240 242 244 244 243 244 247 248 250 253 258 261 264 269 272 274 276 279 281 281 283 284 285 286 285 285 285 286 287 288 289 291 292 291
244 244 245 243 241 245 246 244 242 242 242 244 246 246 248 248 249 252 256 258 262 266 270 274 275 277 281 283 282 283 285 285 286 286 286 286 286 287 289 290 291 291 291
245 246 246 246 245 245 247 247 248 246 245 245 245 247 248 249 250 254 256 258 261 265 270 274 276 277 281 283 284 285 287 289 288 287 286 287 288 289 290 290 292 292 292
245 246 247 248 248 250 251 251 250 250 249 248 248 249 250 251 250 253 256 259 260 264 269 274 278 280 281 283 285 287 287 289 290 289 289 290 291 291 292 293 293 293 292
Height
5865 5867 5869 5870 5872 5874 5876 5877 5879 5881 5882 5883 5884 5885 5886 5887 5888 5888 5888 5887 5887 5886 5886 5885 5884 5883 5882 5881 5880 5879 5877 5875 5874 5874 5873 5873 5873 5872 5872 5872 5872 5872 5872
5863 5864 5866 5868 5870 5871 5873 5875 5876 5878 5880 5881 5882 5883 5884 5885 5886 5886 5886 5885 5885 5885 5884 5883 5883 5882 5881 5880 5879 5878 5876 5874 5874 5873 5872 5872 5872 5871 5871 5871 5871 5871 5871
5860 5862 5863 5865 5867 5869 5870 5872 5874 5876 5877 5879 5880 5881 5882 5882 5883 5884 5884 5884 5883 5883 5882 5882 5881 5880 5880 5879 5878 5877 5875 5874 5873 5872 5872 5871 5871 5871 5871 5870 5870 5869 5869
5857 5859 5861 5862 5864 5866 5868 5870 5871 5873 5875 5877 5878 5879 5880 5880 5881 5882 5882 5882 5881 5881 5881 5880 5880 5879 5878 5878 5877 5876 5874 5873 5872 5871 5871 5871 5870 5870 5869 5869 5868 5868 5868
5855 5856 5858 5860 5861 5863 5865 5867 5869 5871 5873 5874 5875 5876 5877 5878 5878 5879 5879 5879 5879 5879 5879 5878 5878 5878 5877 5876 5875 5874 5873 5872 5871 5870 5870 5869 5869 5869 5868 5868 5867 5867 5866
5852 5853 5855 5857 5859 5861 5862 5865 5866 5868 5870 5872 5873 5874 5875 5875 5876 5877 5877 5877 5877 5877 5877 5877 5877 5876 5876 5875 5874 5873 5872 5871 5870 5869 5868 5868 5867 5867 5867 5866 5865 5865 5864
5849 5850 5852 5854 5856 5858 5860 5862 5864 5865 5867 5869 5870 5871 5872 5873 5874 5875 5875 5875 5875 5876 5875 5875 5875 5874 5874 5873 5872 5871 5870 5869 5868 5868 5867 5866 5866 5865 5865 5864 5863 5862 5861
5846 5847 5849 5851 5853 5855 5857 5859 5861 5862 5864 5866 5867 5869 5869 5871 5872 5872 5873 5873 5873 5873 5873 5873 5873 5872 5872 5871 5870 5870 5869 5868 5867 5866 5865 5865 5864 5863 5862 5861 5861 5859 5859
5842 5844 5846 5848 5850 5852 5854 5856 5858 5859 5861 5863 5864 5866 5867 5868 5869 5870 5870 5871 5871 5871 5871 5871 5871 5871 5870 5869 5869 5868 5867 5866 5865 5865 5864 5863 5862 5861 5860 5859 5858 5858 5857
5839 5841 5842 5845 5847 5848 5850 5852 5854 5856 5858 5859 5861 5863 5864 5865 5866 5867 5868 5868 5869 5869 5868 5868 5868 5868 5868 5867 5867 5866 5865 5864 5864 5863 5862 5861 5860 5859 5858 5857 5856 5855 5855
5835 5837 5839 5841 5843 5845 5847 5849 5851 5853 5855 5856 5858 5860 5861 5863 5864 5864 5865 5866 5866 5866 5866 5866 5866 5866 5866 5865 5865 5864 5863 5863 5862 5861 5860 5859 5858 5857 5856 5855 5854 5853 5852
5832 5834 5836 5838 5840 5842 5844 5846 5848 5850 5852 5853 5855 5857 5859 5860 5861 5862 5863 5863 5863 5864 5864 5863 5864 5864 5864 5863 5862 5862 5861 5860 5860 5859 5858 5857 5856 5855 5854 5853 5852 5851 5850
5829 5831 5833 5835 5837 5839 5841 5843 5845 5847 5849 5851 5852 5854 5856 5857 5858 5859 5860 5860 5861 5861 5861 5861 5861 5861 5861 5861 5860 5860 5859 5858 5857 5856 5855 5854 5853 5852 5851 5850 5849 5848 5847
5826 5827 5829 5831 5833 5835 5838 5840 5842 5844 5846 5848 5849 5851 5852 5854 5855 5856 5857 5857 5858 5858 5858 5858 5858 5858 5858 5858 5858 5857 5856 5856 5855 5854 5853 5852 5850 5849 5848 5847 5846 5845 5843
5823 5824 5826 5828 5830 5832 5834 5836 5838 5841 5842 5844 5846 5847 5849 5850 5852 5853 5853 5854 5854 5855 5855 5855 5855 5855 5855 5855 5854 5854 5853 5853 5852 5850 5849 5848 5847 5846 5845 5844 5842 5841 5840
5821 5822 5824 5825 5827 5829 5831 5833 5835 5837 5839 5840 5842 5844 5845 5847 5848 5849 5850 5850 5851 5851 5851 5851 5852 5851 5851 5851 5851 5850 5850 5849 5848 5847 5846 5845 5844 5843 5841 5840 5838 5837 5835
5818 5820 5821 5823 5824 5826 5828 5829 5831 5833 5835 5836 5838 5840 5841 5843 5844 5845 5846 5846 5847 5847 5847 5848 5848 5848 5847 5847 5847 5846 5845 5845 5844 5843 5842 5841 5839 5838 5837 5836 5834 5832 5831
5815 5817 5818 5820 5821 5823 5824 5826 5828 5829 5831 5832 5834 5836 5837 5839 5840 5841 5842 5843 5843 5843 5843 5843 5843 5843 5843 5843 5842 5842 5841 5840 5839 5838 5837 5836 5834 5833 5832 5831 5829 5827 5826
5811 5813 5814 5816 5818 5819 5821 5822 5824 5825 5827 5828 5830 5831 5833 5834 5836 5837 5838 5838 5839 5839 5839 5839 5839 5839 5838 5838 5837 5837 5836 5835 5834 5833 5832 5830 5829 5828 5827 5825 5824 5822 5820
5808 5809 5810 5812 5814 5815 5817 5818 5819 5821 5823 5824 5825 5827 5828 5830 5831 5832 5833 5834 5834 5834 5834 5834 5834 5834 5834 5833 5832 5831 5831 5830 5829 5827 5826 5825 5824 5822 5821 5819 5818 5816 5814
5804 5805 5807 5808 5809 5811 5812 5814 5815 5817 5819 5820 5821 5823 5824 5825 5826 5828 5829 5830 5830 5830 5830 5830 5830 5829 5829 5828 5827 5826 5825 5824 5823 5822 5820 5819 5817 5816 5814 5813 5811 5809 5807
5800 5801 5803 5804 5805 5807 5808 5809 5811 5813 5814 5815 5817 5818 5820 5821 5822 5823 5824 5825 5825 5825 5825 5825 5825 5824 5823 5823 5822 5821 5819 5818 5817 5815 5814 5812 5811 5809 5807 5806 5804 5801 5799
5796 5797 5798 5800 5801 5802 5804 5805 5806 5808 5809 5811 5812 5813 5815 5816 5817 5818 5819 5820 5820 5820 5820 5820 5820 5819 5818 5817 5816 5815 5814 5812 5810 5809 5807 5806 5804 5802 5800 5798 5796 5793 5791
5792 5793 5794 5795 5796 5797 5799 5800 5801 5803 5804 5806 5807 5808 5810 5811 5812 5813 5814 5814 5815 5815 5815 5815 5814 5814 5813 5812 5810 5809 5808 5806 5804 5802 5800 5799 5797 5795 5792 5790 5787 5785 5782
5787 5788 5789 5790 5792 5793 5794 5795 5796 5798 5799 5800 5802 5803 5804 5805 5806 5808 5809 5809 5810 5810 5810 5809 5809 5808 5807 5805 5804 5802 5801 5799 5797 5795 5793 5791 5789 5787 5784 5781 5778 5775 5772
5782 5783 5784 5785 5787 5788 5788 5790 5791 5792 5793 5795 5796 5797 5798 5799 5800 5802 5803 5803 5804 5804 5804 5803 5802 5801 5800 5798 5797 5795 5793 5791 5789 5787 5785 5783 5780 5778 5775 5772 5769 5766 5763